Location: ????????
(55.1591°N, 39.1782°E)
Time: 20:00:19
(UTC+00:00)

Cosmos 972 Rocket - Pass Details

Date: 14 April 2024
Orbit: 713 x 1150 km, 75.8° (Epoch: 17 May)

Event Time Altitude Azimuth Distance (km) Brightness Sun altitude
Exits shadow 00:07:56 28° 216° (SW) 1,488 4.9 -16.8°
Maximum altitude 00:10:52 73° 296° (WNW) 818 4.0 -16.5°
Drops below altitude 10° 00:15:56 10° 22° (NNE) 2,260 7.5 -16.0°
Sets 00:18:12 0° 24° (NNE) 3,159 8.5 -15.8°
